CAPE
3297 3302 3346 3332 3060 2522 2357 2715 3362 3459 3466 3063 3318 3324 3170 3338 3137 2822 2718 3100 3448 3486 3502 3796 3746 4208 4066 4136 4257 3938 3627 3097 2687 3310 3012 2935 2638 2173 1601 959 944 806
3263 3387 3305 3262 3145 2788 2735 2738 3017 3496 3872 3766 3326 3497 3660 3628 3341 3158 2976 2976 3424 3411 3518 3666 3863 3831 3871 3782 4083 3807 3925 3637 3394 2863 3046 3016 2770 2293 1781 1420 1206 1056
3182 3445 3606 3245 2934 2899 2257 2668 2884 3455 3875 3856 3688 3689 3786 3576 3488 3169 3384 3129 3224 3096 3682 3514 3724 3908 3881 4017 4052 3785 3760 3672 3269 2272 3027 3037 2637 2286 1859 1200 1343 1351
3228 3276 3078 2819 2649 2658 2500 2531 2762 3167 3344 3854 3627 3328 3226 3005 3207 3336 3133 3493 3179 3231 3572 3698 3435 3583 3899 3994 4055 3841 3694 3797 3367 3128 3194 3128 2924 2416 1912 1776 1498 1398
3359 3298 3088 2921 2736 2810 2667 2477 2369 2864 2914 3130 3712 3431 2980 3098 3596 3428 3234 3341 3519 3608 3862 3923 3829 3652 3974 3960 3826 3577 3472 3734 3522 3588 3414 3185 3071 2646 2172 1938 1988 1547
3524 3315 3229 3251 3082 3102 2955 2673 2722 2591 2750 2612 3467 3551 3299 2942 3593 3351 3480 3213 3338 3444 3351 3793 3942 3536 3962 4048 3886 3536 3301 3285 3287 3659 3542 3288 2920 2540 2098 2073 2206 2051
3504 3525 3250 3267 3207 3222 3248 3084 2888 2790 2969 2876 3267 3438 3431 3043 2955 3260 3664 3556 2960 2988 3135 3491 3843 3525 3530 3877 3881 3660 3604 3546 3440 3665 3542 3370 3095 2752 2241 2238 2284 2154
3340 3339 3404 3099 2972 3041 3103 3182 3269 3086 3057 3282 3314 3507 3611 3334 3018 2906 3616 3956 3646 3389 3353 3728 3980 3769 3629 3645 3839 3871 3717 3614 3515 3776 3580 3449 3308 3157 2623 2220 2459 2254
3660 3511 3392 3190 2556 2622 2764 2678 3226 3392 3240 3409 3305 3351 3612 3415 3384 2906 3165 3950 3882 3905 3915 3769 3919 3853 3497 3447 3796 3858 3690 3375 3302 3497 3592 3474 3451 3310 2994 2449 2441 2446
3664 3549 3424 2913 2986 3240 2758 2497 2810 3015 3306 3313 3318 3236 3595 3462 3592 3394 3305 3619 3992 4153 4245 3929 3852 3840 3646 3474 3735 3868 3800 3793 3614 3451 3446 3448 3406 3405 3186 2704 2328 2465
3364 3424 3660 3606 3320 3057 2996 2874 2742 2629 3016 3103 2952 3153 3385 3505 3509 3840 3894 3804 3868 4177 4386 4230 3848 3874 3718 3494 3638 3854 3863 3830 3786 3695 3498 3478 3532 3563 3242 2950 2516 2319
3494 3164 3215 3370 3148 2706 2944 2768 2611 2581 3216 3505 3342 3316 3281 3387 3529 3705 4043 4138 3884 3935 4263 4392 4089 3904 3871 3706 3487 3599 3840 3846 3814 3762 3658 3560 3608 3685 3549 3153 2808 2440
3607 3286 3080 3020 3214 2918 2898 2852 2810 2682 2868 3171 3435 3364 3177 3153 3566 3576 3828 4335 4207 4026 4016 4224 4286 3980 3914 3951 3794 3612 3720 3891 3848 3864 3715 3662 3629 3621 3524 3270 2957 2718
3512 3701 3377 3389 3356 3275 3178 2898 2778 2923 2828 3264 3735 3610 3359 2967 3292 3765 3702 4075 4429 4220 4089 4081 4225 4161 4041 4099 4059 3942 3876 3922 3891 3900 3746 3752 3611 3524 3339 3087 2959 2806
3900 3928 3696 3498 3514 3553 3378 3105 3031 3154 3096 3227 3734 3778 3371 3152 2958 3679 3920 3839 4239 4486 4291 4098 4080 4120 3995 3992 4118 4138 4043 3894 3940 3885 3898 3837 3685 3472 3448 3295 3080 2812
4190 4080 3956 3687 3572 3736 3650 3425 3271 3445 3378 3297 3356 3813 3768 3580 3160 3002 3790 3945 3899 4419 4574 4356 4093 4008 3717 3612 3693 3925 3928 3674 3771 3908 3942 3862 3763 3588 3476 3509 3354 2979
4520 4416 4300 4061 3848 3825 3923 3803 3586 3589 3645 3481 3346 3612 3878 3909 3759 3381 2970 3660 3905 4064 4490 4437 4219 3998 3732 3600 3582 3543 3712 3591 3549 4020 4018 3826 3731 3734 3598 3608 3491 3183
4697 4648 4612 4475 4197 4054 4184 4163 3868 3687 3767 3762 3461 3459 3915 4070 3924 3839 3482 3316 4013 4041 4073 4484 4476 3988 3854 3970 3785 3506 3447 3572 3501 3748 4130 4014 3777 3717 3667 3540 3489 3382
4971 4879 4809 4802 4661 4344 4267 4426 4328 3954 3814 3790 3601 3531 3697 4134 4168 4013 3915 3605 3725 4268 4190 4317 4548 4262 4114 4013 3931 3839 3736 3554 3746 3526 3626 3990 3883 3660 3559 3562 3453 3399
5239 5076 4978 4973 5009 4831 4492 4472 4511 4314 3934 3754 3708 3736 3872 4058 4160 4127 4011 3954 3770 4060 4381 4386 4361 4197 4184 4027 3902 3812 3751 3519 3723 3862 3538 3547 3847 3843 3528 3429 3513 3378
5438 5268 5158 5154 5274 5203 4874 4581 4592 4601 4430 4051 3697 3756 3760 4004 4135 4198 4173 4058 3945 3900 4313 4509 4116 4135 4136 4039 3930 3834 3673 3559 3463 3824 3905 3791 3791 3930 3845 3496 3493 3537
5518 5470 5365 5304 5414 5424 5167 4798 4669 4865 4791 4468 3841 3483 3640 3814 4168 3986 4162 4246 4211 4055 3871 4032 4075 3865 4063 4142 4066 3910 3775 3610 3420 3676 3713 3818 3907 3835 4001 3916 3591 3532
5520 5558 5579 5509 5528 5580 5425 5050 4911 5136 5159 4812 4269 3981 4023 3901 3854 3726 3847 4086 4285 4294 4097 3858 3869 3715 3664 3771 3924 4011 3908 3708 3448 3541 3638 3570 3609 3859 4063 4114 3947 3705
5415 5603 5718 5686 5762 5864 5791 5519 5260 5152 5127 4899 4493 3979 3476 3550 3573 3726 3694 3729 3932 4286 4255 4186 3998 3893 3645 3648 3751 3873 3929 3916 3722 3518 3694 3628 3480 3576 3851 4029 4049 3751
5384 5688 5941 5878 5908 6097 5960 5718 5245 5214 5038 5114 4479 4058 3730 3792 3930 4044 3989 3997 3777 4101 4174 4109 4058 3928 3777 3756 3829 3908 3942 3957 3868 3682 3688 3719 3624 3592 3680 3820 3956 3770
5213 5692 6043 6080 6074 5991 6004 5814 5496 5133 5295 5060 4711 4104 3954 3722 3839 4077 4356 4290 4159 4150 4242 3990 4097 4281 3961 3853 3835 3789 3746 3807 3832 3780 3640 3745 3803 3719 3711 3678 3723 3953
Wind_Speed
7 7 8 8 7 6 4 4 4 3 3 3 3 4 3 3 5 6 7 9 10 10 10 11 12 12 13 12 12 12 11 12 10 9 8 7 7 6 6 9 8 9
6 7 8 8 7 6 5 5 4 5 5 5 4 5 5 5 7 8 9 10 11 11 11 11 12 13 13 13 13 14 12 12 11 10 8 8 8 7 6 8 8 7
7 7 8 9 8 8 8 7 7 7 8 8 7 7 8 7 8 8 9 12 12 12 12 11 12 13 13 13 14 14 14 13 13 12 11 9 8 8 6 8 8 8
9 8 8 9 9 9 10 9 9 9 10 11 11 10 10 11 11 12 11 13 14 14 13 13 13 14 14 14 15 14 15 14 14 12 13 11 9 8 8 7 10 10
11 10 9 9 10 11 12 12 12 12 12 12 13 13 12 11 15 14 15 14 15 16 15 15 14 15 16 15 16 15 15 15 15 14 14 14 12 10 10 10 10 12
12 11 12 11 12 13 13 13 13 13 14 13 14 14 14 14 14 16 17 17 16 17 17 17 16 16 17 17 17 17 16 15 15 16 15 15 14 13 11 12 12 12
14 13 14 12 13 13 13 14 14 14 15 14 15 15 16 16 15 15 18 18 18 17 17 18 18 18 18 19 18 18 17 17 16 18 17 15 15 15 14 13 14 13
14 14 14 13 14 14 14 15 16 15 16 16 16 17 17 17 17 16 16 19 19 18 17 18 19 19 20 20 20 20 19 18 17 18 19 17 16 15 16 14 16 16
14 14 14 15 15 15 16 16 16 16 16 16 17 17 18 17 18 17 16 17 18 18 19 18 19 21 20 20 21 22 21 20 20 19 20 19 17 16 16 16 16 18
14 15 17 17 17 15 16 17 16 16 16 17 17 16 17 18 18 19 18 17 17 18 19 18 19 21 22 21 22 23 23 22 21 21 20 20 19 17 17 17 17 18
16 17 17 18 18 17 18 18 17 16 16 18 18 18 17 19 18 20 20 20 18 18 18 19 19 20 22 22 21 23 24 24 22 22 20 20 20 18 17 16 17 18
17 17 19 19 19 18 18 18 17 17 18 19 19 19 18 19 21 20 21 21 19 18 17 17 18 18 20 22 22 22 24 24 24 23 22 21 21 20 18 17 16 17
18 18 18 19 18 17 17 17 18 18 19 19 20 20 20 19 21 22 20 20 20 19 18 17 18 18 18 20 20 20 21 23 23 24 23 22 21 21 20 18 17 17
17 18 19 19 18 18 17 18 18 17 17 18 20 20 20 20 21 23 21 19 19 18 18 17 17 17 17 18 19 19 20 21 22 23 23 22 22 22 21 20 19 18
19 19 19 19 20 20 19 19 19 18 18 18 20 21 20 20 20 21 20 19 18 18 17 16 16 16 16 17 18 20 19 20 22 23 24 23 22 22 22 21 20 20
23 22 21 20 20 20 20 20 20 20 20 19 20 22 22 21 19 18 19 19 17 17 16 15 13 13 17 23 23 20 21 19 20 21 23 24 23 23 23 23 22 21
26 25 23 21 19 19 20 21 22 21 21 20 20 21 22 22 19 16 15 16 17 16 17 14 13 13 21 23 26 28 24 23 22 22 23 24 25 25 24 24 24 23
25 25 23 20 19 19 19 21 21 21 20 20 20 20 19 19 19 16 13 13 15 16 15 14 13 15 22 24 27 30 30 26 25 24 25 25 25 26 26 25 26 26
21 21 19 17 17 18 19 20 20 20 19 19 19 18 18 17 17 17 15 13 13 15 14 14 14 18 23 26 27 30 32 30 25 26 25 26 27 28 28 28 27 27
19 18 15 14 15 17 18 18 18 18 18 17 16 17 16 15 16 16 16 15 14 13 14 14 15 18 24 26 28 30 32 31 27 27 26 26 28 29 29 29 30 29
19 16 14 13 13 15 16 16 16 16 16 16 15 16 16 15 15 15 15 16 16 15 14 14 14 20 24 26 28 31 33 33 28 27 26 26 27 28 29 29 29 30
18 16 15 13 12 13 14 13 13 13 14 15 15 14 14 14 14 13 14 14 15 15 14 14 14 21 25 27 30 31 35 29 28 29 27 26 27 28 28 28 28 29
16 15 15 14 13 13 12 11 11 12 12 15 14 14 14 14 13 13 13 14 15 16 17 16 16 21 27 29 31 34 32 27 31 30 29 27 27 29 29 29 29 29
14 13 13 13 12 11 11 11 11 12 12 14 14 14 14 13 13 12 13 14 16 18 19 17 17 21 28 30 33 35 34 29 31 32 30 29 28 28 29 29 30 33
14 13 12 13 12 11 12 13 13 14 14 15 15 15 14 14 14 13 14 16 17 18 19 19 18 20 28 31 34 35 34 30 32 31 31 30 30 31 31 31 31 33
16 15 13 14 14 14 14 15 16 16 16 17 16 16 16 16 15 15 15 16 17 17 17 19 19 19 24 30 34 34 38 33 32 32 30 30 32 33 34 34 34 34
Wind_Direction
255 253 263 266 267 271 272 271 274 289 295 308 315 324 344 315 317 320 330 328 338 344 344 342 346 347 354 356 346 338 335 334 340 343 360 347 341 5 354 0 10 26
282 278 272 279 276 277 281 290 296 300 309 319 314 306 310 306 316 315 325 329 330 338 334 336 336 340 341 343 342 339 337 330 332 327 338 347 336 1 1 339 355 13
296 295 298 307 308 314 327 317 311 309 309 318 314 302 306 312 309 308 307 318 321 330 327 328 328 330 333 332 332 336 337 335 330 329 322 334 337 345 346 340 330 353
318 319 312 315 312 313 318 312 313 307 310 307 317 318 310 310 309 313 309 307 309 313 317 321 325 324 325 325 323 328 334 336 331 323 316 318 329 333 332 326 325 331
323 321 312 310 309 308 311 318 322 317 321 316 315 315 313 303 309 315 312 308 304 307 307 312 313 316 316 317 318 320 326 330 331 328 317 316 315 319 317 322 321 328
316 317 316 314 312 313 317 321 320 320 322 324 316 311 314 316 305 310 309 312 309 308 309 310 309 309 310 312 313 315 318 322 328 330 327 318 313 309 310 312 319 321
314 312 319 315 319 321 319 318 316 318 313 318 312 316 314 318 316 309 307 309 311 308 309 305 305 305 303 305 308 311 313 316 318 323 327 320 312 309 309 304 311 316
310 309 312 312 325 322 324 319 318 315 315 317 322 321 320 323 323 319 311 313 315 311 308 303 302 303 303 302 305 308 313 310 314 315 321 322 315 309 305 300 301 310
301 306 309 318 331 329 334 331 321 316 317 321 323 324 324 324 322 326 320 317 317 313 311 306 301 302 301 300 303 307 311 312 313 313 316 320 321 316 309 301 300 304
305 305 321 325 330 325 330 330 325 323 319 325 328 330 327 325 323 325 325 324 323 318 315 312 306 303 303 303 303 307 309 311 310 311 312 316 319 318 313 306 305 301
317 318 323 328 328 323 330 330 332 330 324 331 335 338 332 323 325 324 325 327 329 329 325 322 318 311 309 310 307 307 310 312 310 308 310 311 314 314 312 307 304 302
320 326 331 332 332 330 332 332 333 332 329 327 336 338 333 328 327 326 327 331 334 338 337 332 326 322 319 318 319 316 312 313 312 311 311 309 308 310 309 305 299 299
325 326 323 328 325 326 320 324 331 335 335 332 331 336 336 333 328 332 331 334 338 343 346 343 339 336 329 326 324 323 320 319 319 319 317 312 309 310 309 305 301 296
319 314 316 317 313 313 314 320 325 326 327 321 320 329 336 336 332 333 337 337 339 345 349 348 347 344 340 336 334 332 331 330 329 327 327 324 319 316 313 311 308 305
297 299 304 306 306 306 310 314 316 315 315 316 318 322 326 332 337 334 336 339 340 343 349 350 351 350 344 342 340 341 340 340 337 335 333 331 329 328 324 320 314 312
292 291 295 298 299 300 304 307 309 311 315 319 321 323 323 326 331 334 335 338 340 342 346 349 350 348 350 352 347 341 341 339 337 338 337 336 336 336 334 331 327 321
288 290 291 294 294 292 294 301 308 310 314 318 321 321 322 323 325 333 337 330 336 339 345 348 350 348 351 347 348 347 340 339 339 338 340 341 341 340 339 336 333 329
291 291 291 292 290 290 292 297 303 311 316 319 321 322 316 313 321 328 325 319 320 334 343 345 347 347 342 342 343 343 340 336 336 338 340 344 345 345 343 341 340 336
290 292 293 290 290 289 287 292 303 314 319 318 321 314 308 311 316 317 318 317 315 323 336 340 340 340 338 338 339 340 339 336 332 338 342 345 347 347 345 345 343 340
294 295 294 289 286 286 289 298 308 318 316 310 306 305 311 315 310 314 313 316 319 317 321 327 336 333 335 335 338 340 339 336 334 337 344 347 345 344 343 344 344 340
294 295 295 288 286 287 292 305 313 309 307 302 305 311 314 313 312 310 312 314 320 319 311 321 335 334 330 336 339 341 341 337 336 334 337 340 340 339 341 341 339 337
294 292 293 290 290 290 297 306 304 301 304 301 301 306 307 304 301 308 312 312 312 316 323 332 337 338 335 337 339 338 338 326 331 336 336 336 338 338 336 335 334 332
297 295 291 292 290 292 300 303 298 295 295 293 303 307 306 312 314 316 308 311 318 322 333 337 337 335 334 338 337 338 329 318 331 331 333 336 338 335 334 333 330 328
294 294 293 295 296 301 300 295 292 290 299 297 308 315 324 324 316 311 310 315 325 330 333 332 331 328 328 333 336 334 331 317 325 328 329 332 332 329 325 324 328 333
285 293 299 303 305 299 297 302 302 296 292 292 306 310 314 304 303 307 311 313 327 328 330 332 329 324 323 325 328 327 323 315 321 320 326 329 324 321 320 319 320 323
272 278 283 290 297 295 293 297 295 297 302 303 304 305 304 305 304 307 312 313 313 316 319 322 326 321 313 320 321 324 326 317 313 316 323 325 317 315 314 318 320 318